Tracking 17636 objects as of 30-April-2016
HD Live streaming from Space Station
objects crossing your sky now

DEMETER

Track DEMETER now!
10-day predictions
DEMETER is classified as:


NORAD ID: 28368
Int'l Code: 2004-025C
Perigee: 653.9 km
Apogee: 657.0 km
Inclination: 97.7 °
Period: 97.7 minutes
Semi major axis: 7026 km
RCS: 0.9257 m2 (medium)
Launch date: June 29, 2004
Source: France (FR)
Launch site: TYURATAM MISSILE AND SPACE COMPLEX (TTMTR)

Study of ionosperic perturbations in relation with seismic activity; global study of the Earth electromagnetic environment.
Your satellite tracking list
Your tracking list is empty





NASA's NSSDC Master Catalog

Two Line Element Set (TLE):
1 28368U 04025C   16121.23024064  .00000387  00000-0  66042-4 0  9990
2 28368  97.7151 134.1494 0002174 109.9664 250.1777 14.74008545634789
Source of the keplerian elements: AFSPC

N2YO: 282